This demonstration page uses our WeatherBlox Daily Observations layout. Learn more.

Left ArrowRight Arrow

Hourly Observations for September 14, 2021

Temp ( °F °C ) Dew Point ( °F °C ) Humidity (%) Winds ( mph kmh ) Pressure ( in mb ) Visibility ( mi km ) Precip ( " mm )
12:53 am 00:53 Clear 73 22.8 58 14.4 59 59 S 10 17 29.85 1011 10 16 0.00 0.00
1:53 am 01:53 Clear 73 22.8 61 16.1 66 66 S 12 19 29.85 1011 10 16 0.00 0.00
2:53 am 02:53 Clear 71 21.7 62 16.7 73 73 S 9 15 29.86 1011 10 16 0.00 0.00
3:53 am 03:53 Clear 68 20 63 17.2 84 84 S 5 7 29.88 1012 10 16 0.00 0.00
4:53 am 04:53 Clear 68 20 64 17.8 87 87 S 9 15 29.86 1011 10 16 0.00 0.00
5:53 am 05:53 Clear 69 20.6 65 18.3 87 87 S 9 15 29.87 1011 10 16 0.00 0.00
6:53 am 06:53 Mostly Clear 67 19.4 65 18.3 93 93 S 6 9 29.90 1013 10 16 0.00 0.00
7:53 am 07:53 Partly Cloudy 68 20 65 18.3 90 90 S 6 9 29.92 1013 10 16 0.00 0.00
8:53 am 08:53 Partly Cloudy 74 23.3 66 18.9 76 76 SSW 13 20 29.91 1013 10 16 0.00 0.00
9:53 am 09:53 Partly Cloudy 77 25 66 18.9 69 69 SSW 18 30 29.91 1013 10 16 0.00 0.00
10:53 am 10:53 Partly Cloudy 81 27.2 67 19.4 62 62 SW 14 22 29.92 1013 10 16 0.00 0.00
11:53 am 11:53 Partly Cloudy 84 28.9 67 19.4 57 57 WSW 12 19 29.91 1013 10 16 0.00 0.00
12:53 pm 12:53 Partly Cloudy 85 29.4 67 19.4 55 55 SSW 7 11 29.90 1013 10 16 0.00 0.00
1:53 pm 13:53 Cloudy 89 31.7 67 19.4 48 48 Calm 29.88 1012 10 16 0.00 0.00
2:53 pm 14:53 Mostly Cloudy 88 31.1 66 18.9 48 48 NW 6 9 29.86 1011 10 16 0.00 0.00
3:53 pm 15:53 Mostly Cloudy 89 31.7 68 20 50 50 NNE 8 13 29.86 1011 10 16 0.00 0.00
4:53 pm 16:53 Mostly Cloudy 87 30.6 67 19.4 51 51 SSW 3 6 29.83 1010 10 16 0.00 0.00
5:53 pm 17:53 Mostly Cloudy 85 29.4 67 19.4 55 55 E 6 9 29.83 1010 10 16 0.00 0.00
6:53 pm 18:53 Mostly Cloudy 81 27.2 67 19.4 62 62 E 7 11 29.83 1010 10 16 0.00 0.00
7:07 pm 19:07 Mostly Cloudy with Thunderstorms 81 27.2 67 19.4 62 62 ENE 6 9 29.81 1009 10 16 0.00 0.00
7:53 pm 19:53 Cloudy with Thunderstorms 80 26.7 66 18.9 62 62 ENE 7 11 29.85 1011 10 16 0.00 0.00
8:53 pm 20:53 Cloudy with Thunderstorms 72 22.2 69 20.6 91 91 NNW 14 22 29.92 1013 10 16 0.07 1.78
9:38 pm 21:38 Cloudy with Thunderstorms 73 22.8 68 20 84 84 SE 20 31 29.89 1012 3 5 0.14 3.56
9:53 pm 21:53 Windy with Storms Likely 70 21.1 62 16.7 76 76 SSE 21 33 29.91 1013 10 16 0.16 4.06
10:45 pm 22:45 Cloudy with Light Rain 69 20.6 64 17.8 84 84 S 8 13 29.94 1014 10 16 0.00 0.00
10:53 pm 22:53 Cloudy 69 20.6 64 17.8 84 84 VRB 3 6 29.95 1014 10 16 0.00 0.00
11:53 pm 23:53 Cloudy 69 20.6 64 17.8 84 84 NE 5 7 29.93 1014 10 16 0.00 0.00

Powered by Vaisala Xweather